Location: Newark
(12.4436°N, 0.6167°W)
Time: 05:41:36
(UTC+00:00)

Vanguard 1 - Pass Details

Date: 11 December 2019
Orbit: 651 x 3832 km, 34.2° (Epoch: 17 January)

Event Time Altitude Azimuth Distance (km) Brightness Sun altitude
Rises 05:34:25 0° 276° (W) 7,831 - -9.6°
Exits shadow 05:39:25 - 283° (WNW) 7,092 13.8 -8.5°
Reaches altitude 10° 05:40:35 10° 284° (WNW) 6,921 13.7 -8.2°
Maximum altitude 06:01:29 38° 347° (NNW) 4,510 13.2 -3.5°
Drops below altitude 10° 06:16:55 10° 51° (NE) 5,203 14.2 0.0°
Sets 06:20:45 0° 60° (ENE) 5,806 14.6 0.8°
